TAM3672 SBGL-SBSV

Flight info

Callsign TAM3672
Flight time 1h 32m
Altitude 35000
Route IMBAP UZ42 SIRAP DCT OSAGU DCT ZUMBA
Aircraft A320/M-SDE2FGHIM1RWXYZ/LB1

Departure

Time 2026-05-06 19:05
Airport Rio Galeão – Tom Jobim International Airport (SBGL)

Arrival

Time 2026-05-06 20:38
Airport Deputado Luiz Eduardo Magalhães International Airport (SBSV)
Time Latitude Longitude Altitude Speed Heading
2026-05-06 18:20 -22.81455 -43.24821 22 ft 0 kts 72°
2026-05-06 18:54 -22.81458 -43.24830 22 ft 3 kts 71°
2026-05-06 18:54 -22.81464 -43.24851 24 ft 3 kts 69°
2026-05-06 18:55 -22.81471 -43.24869 23 ft 2 kts 56°
2026-05-06 18:55 -22.81478 -43.24878 23 ft 1 kts 27°
2026-05-06 18:55 -22.81486 -43.24882 25 ft 1 kts 354°
2026-05-06 18:55 -22.81495 -43.24880 22 ft 1 kts 339°
2026-05-06 18:56 -22.81503 -43.24877 22 ft 1 kts 335°
2026-05-06 18:56 -22.81511 -43.24873 24 ft 1 kts 333°
2026-05-06 18:56 -22.81518 -43.24869 23 ft 0 kts 333°
2026-05-06 18:58 -22.81508 -43.24881 24 ft 5 kts 300°
2026-05-06 18:58 -22.81486 -43.24944 21 ft 14 kts 291°
2026-05-06 18:58 -22.81429 -43.25052 20 ft 18 kts 302°
2026-05-06 18:59 -22.81368 -43.25135 20 ft 12 kts 322°
2026-05-06 18:59 -22.81315 -43.25205 20 ft 13 kts 306°
2026-05-06 18:59 -22.81261 -43.25285 20 ft 14 kts 311°
2026-05-06 18:59 -22.81183 -43.25353 20 ft 15 kts 328°
2026-05-06 19:00 -22.81089 -43.25382 20 ft 14 kts 353°
2026-05-06 19:00 -22.80999 -43.25380 20 ft 12 kts
2026-05-06 19:00 -22.80956 -43.25407 20 ft 7 kts 298°
2026-05-06 19:00 -22.80934 -43.25454 25 ft 7 kts 293°
2026-05-06 19:01 -22.80910 -43.25512 26 ft 12 kts 297°
2026-05-06 19:01 -22.80864 -43.25612 22 ft 17 kts 301°
2026-05-06 19:01 -22.80811 -43.25682 25 ft 9 kts 340°
2026-05-06 19:01 -22.80761 -43.25677 25 ft 10 kts 23°
2026-05-06 19:02 -22.80688 -43.25623 26 ft 12 kts 36°
2026-05-06 19:02 -22.80622 -43.25572 25 ft 11 kts 36°
2026-05-06 19:02 -22.80568 -43.25532 28 ft 5 kts 30°
2026-05-06 19:02 -22.80563 -43.25529 29 ft 1 kts 26°
2026-05-06 19:03 -22.80512 -43.25541 31 ft 16 kts 326°
2026-05-06 19:03 -22.80422 -43.25608 29 ft 15 kts 326°
2026-05-06 19:03 -22.80350 -43.25595 27 ft 11 kts 38°
2026-05-06 19:03 -22.80288 -43.25542 28 ft 11 kts 38°
2026-05-06 19:04 -22.80229 -43.25494 26 ft 10 kts 33°
2026-05-06 19:04 -22.80178 -43.25454 25 ft 8 kts 46°
2026-05-06 19:04 -22.80161 -43.25405 27 ft 7 kts 74°
2026-05-06 19:04 -22.80114 -43.25221 26 ft 58 kts 74°
2026-05-06 19:05 -22.79944 -43.24567 32 ft 120 kts 74°
2026-05-06 19:05 -22.79668 -43.23509 29 ft 170 kts 73°
2026-05-06 19:05 -22.79323 -43.22237 495 ft 175 kts 74°
2026-05-06 19:05 -22.78978 -43.20916 1008 ft 188 kts 75°
2026-05-06 19:06 -22.78616 -43.19471 1328 ft 210 kts 76°
2026-05-06 19:06 -22.78214 -43.17850 1633 ft 234 kts 76°
2026-05-06 19:06 -22.77830 -43.16059 2149 ft 251 kts 78°
2026-05-06 19:06 -22.77460 -43.14191 2941 ft 256 kts 78°
2026-05-06 19:07 -22.77093 -43.12313 3718 ft 260 kts 78°
2026-05-06 19:07 -22.76711 -43.10381 4549 ft 264 kts 77°
2026-05-06 19:07 -22.76318 -43.08418 5348 ft 269 kts 77°
2026-05-06 19:07 -22.75914 -43.06431 6133 ft 272 kts 75°
2026-05-06 19:08 -22.75170 -43.04550 6883 ft 274 kts 56°
2026-05-06 19:08 -22.73873 -43.03035 7624 ft 277 kts 36°
2026-05-06 19:08 -22.72144 -43.02098 8363 ft 282 kts 15°
2026-05-06 19:08 -22.70193 -43.01749 9129 ft 286 kts 10°
2026-05-06 19:09 -22.68234 -43.01321 9891 ft 289 kts 13°
2026-05-06 19:09 -22.66258 -43.00801 10453 ft 299 kts 14°
2026-05-06 19:09 -22.64161 -43.00222 10646 ft 322 kts 15°
2026-05-06 19:09 -22.61933 -42.99610 11021 ft 336 kts 14°
2026-05-06 19:10 -22.59641 -42.99000 11646 ft 342 kts 14°
2026-05-06 19:10 -22.57345 -42.98408 12294 ft 345 kts 13°
2026-05-06 19:10 -22.55037 -42.97659 12963 ft 349 kts 20°
2026-05-06 19:10 -22.52758 -42.96719 13626 ft 352 kts 21°
2026-05-06 19:11 -22.50468 -42.95743 14233 ft 356 kts 21°
2026-05-06 19:11 -22.48157 -42.94745 14763 ft 360 kts 22°
2026-05-06 19:11 -22.45815 -42.93733 15288 ft 365 kts 22°
2026-05-06 19:11 -22.43444 -42.92710 15807 ft 369 kts 22°
2026-05-06 19:12 -22.41042 -42.91676 16320 ft 374 kts 22°
2026-05-06 19:12 -22.38614 -42.90636 16827 ft 378 kts 22°
2026-05-06 19:12 -22.36150 -42.89583 17330 ft 383 kts 22°
2026-05-06 19:12 -22.33664 -42.88520 17844 ft 387 kts 22°
2026-05-06 19:13 -22.31150 -42.87446 18364 ft 391 kts 22°
2026-05-06 19:13 -22.28607 -42.86362 18828 ft 394 kts 22°
2026-05-06 19:13 -22.26049 -42.85273 19306 ft 397 kts 22°
2026-05-06 19:13 -22.23470 -42.84175 19776 ft 400 kts 21°
2026-05-06 19:14 -22.20872 -42.83073 20256 ft 403 kts 21°
2026-05-06 19:14 -22.18252 -42.81961 20738 ft 406 kts 21°
2026-05-06 19:14 -22.15615 -42.80838 21210 ft 409 kts 21°
2026-05-06 19:14 -22.12960 -42.79704 21704 ft 412 kts 21°
2026-05-06 19:15 -22.10291 -42.78565 22190 ft 414 kts 21°
2026-05-06 19:15 -22.07605 -42.77419 22682 ft 417 kts 21°
2026-05-06 19:15 -22.04893 -42.76265 23157 ft 420 kts 21°
2026-05-06 19:15 -22.02205 -42.75125 23622 ft 422 kts 21°
2026-05-06 19:16 -21.99458 -42.73961 24027 ft 425 kts 21°
2026-05-06 19:16 -21.96701 -42.72792 24421 ft 427 kts 21°
2026-05-06 19:16 -21.93925 -42.71615 24803 ft 430 kts 21°
2026-05-06 19:16 -21.91137 -42.70434 25178 ft 432 kts 21°
2026-05-06 19:17 -21.88330 -42.69247 25535 ft 434 kts 21°
2026-05-06 19:17 -21.85506 -42.68054 25874 ft 437 kts 21°
2026-05-06 19:17 -21.82669 -42.66854 26214 ft 440 kts 21°
2026-05-06 19:17 -21.79815 -42.65647 26543 ft 442 kts 21°
2026-05-06 19:18 -21.76942 -42.64432 26875 ft 445 kts 21°
2026-05-06 19:18 -21.74055 -42.63207 27198 ft 447 kts 21°
2026-05-06 19:18 -21.71154 -42.61974 27514 ft 450 kts 21°
2026-05-06 19:18 -21.68234 -42.60734 27814 ft 453 kts 21°
2026-05-06 19:19 -21.65291 -42.59489 28119 ft 455 kts 21°
2026-05-06 19:19 -21.62380 -42.58130 28420 ft 458 kts 27°
2026-05-06 19:19 -21.59562 -42.56513 28714 ft 460 kts 28°
2026-05-06 19:19 -21.56732 -42.54876 29008 ft 463 kts 28°
2026-05-06 19:20 -21.53894 -42.53232 29300 ft 465 kts 28°
2026-05-06 19:20 -21.51039 -42.51579 29586 ft 467 kts 28°
2026-05-06 19:20 -21.48171 -42.49925 29850 ft 469 kts 28°
2026-05-06 19:20 -21.45324 -42.48286 30112 ft 472 kts 28°
2026-05-06 19:21 -21.42424 -42.46616 30339 ft 474 kts 28°
2026-05-06 19:21 -21.39515 -42.44942 30544 ft 476 kts 28°
2026-05-06 19:21 -21.36587 -42.43258 30735 ft 479 kts 28°
2026-05-06 19:21 -21.33646 -42.41565 30928 ft 481 kts 28°
2026-05-06 19:22 -21.30684 -42.39864 31109 ft 483 kts 28°
2026-05-06 19:22 -21.27718 -42.38164 31348 ft 484 kts 28°
2026-05-06 19:22 -21.24749 -42.36465 31613 ft 484 kts 28°
2026-05-06 19:22 -21.21779 -42.34761 31852 ft 485 kts 28°
2026-05-06 19:23 -21.18805 -42.33051 32124 ft 485 kts 28°
2026-05-06 19:23 -21.15834 -42.31342 32375 ft 486 kts 28°
2026-05-06 19:23 -21.12850 -42.29630 32631 ft 486 kts 28°
2026-05-06 19:23 -21.10879 -42.28501 32799 ft 486 kts 28°
2026-05-06 19:24 -21.06881 -42.26214 33130 ft 487 kts 28°
2026-05-06 19:24 -21.04896 -42.25080 33306 ft 488 kts 28°
2026-05-06 19:24 -21.00892 -42.22796 33659 ft 488 kts 28°
2026-05-06 19:24 -20.98903 -42.21660 33817 ft 489 kts 28°
2026-05-06 19:25 -20.95903 -42.19949 34078 ft 489 kts 28°
2026-05-06 19:25 -20.92897 -42.18236 34308 ft 490 kts 28°
2026-05-06 19:25 -20.89892 -42.16519 34524 ft 490 kts 29°
2026-05-06 19:25 -20.85908 -42.14241 34808 ft 490 kts 29°
2026-05-06 19:26 -20.83876 -42.13081 34948 ft 491 kts 29°
2026-05-06 19:26 -20.79886 -42.10802 35139 ft 491 kts 29°
2026-05-06 19:26 -20.77862 -42.09648 35163 ft 488 kts 29°
2026-05-06 19:27 -20.71896 -42.06250 35165 ft 485 kts 29°
2026-05-06 19:27 -20.64991 -42.02313 35167 ft 484 kts 28°
2026-05-06 19:28 -20.59860 -41.99851 35170 ft 484 kts 19°
2026-05-06 19:28 -20.53542 -41.97484 35172 ft 484 kts 19°
2026-05-06 19:29 -20.47186 -41.95100 35171 ft 484 kts 19°
2026-05-06 19:29 -20.40782 -41.92697 35173 ft 493 kts 19°
2026-05-06 19:30 -20.34246 -41.90240 35164 ft 499 kts 19°
2026-05-06 19:30 -20.27685 -41.87768 35165 ft 501 kts 20°
2026-05-06 19:31 -20.21106 -41.85293 35160 ft 501 kts 19°
2026-05-06 19:31 -20.11284 -41.81624 35158 ft 501 kts 19°
2026-05-06 19:32 -20.04700 -41.79174 35154 ft 501 kts 19°
2026-05-06 19:32 -19.98115 -41.76716 35164 ft 501 kts 19°
2026-05-06 19:33 -19.91530 -41.74253 35149 ft 501 kts 20°
2026-05-06 19:33 -19.84954 -41.71794 35151 ft 501 kts 19°
2026-05-06 19:34 -19.78368 -41.69339 35147 ft 501 kts 19°
2026-05-06 19:34 -19.71791 -41.66893 35147 ft 501 kts 19°
2026-05-06 19:35 -19.65263 -41.64465 35150 ft 500 kts 19°
2026-05-06 19:35 -19.58698 -41.62028 35136 ft 500 kts 19°
2026-05-06 19:36 -19.52134 -41.59596 35142 ft 500 kts 19°
2026-05-06 19:36 -19.45571 -41.57164 35131 ft 500 kts 19°
2026-05-06 19:37 -19.39011 -41.54719 35138 ft 499 kts 19°
2026-05-06 19:37 -19.32451 -41.52288 35135 ft 499 kts 19°
2026-05-06 19:38 -19.25891 -41.49866 35130 ft 499 kts 19°
2026-05-06 19:38 -19.19342 -41.47442 35132 ft 499 kts 19°
2026-05-06 19:39 -19.12791 -41.45016 35133 ft 499 kts 19°
2026-05-06 19:39 -19.06275 -41.42612 35133 ft 499 kts 19°
2026-05-06 19:40 -18.99722 -41.40201 35133 ft 498 kts 19°
2026-05-06 19:40 -18.93171 -41.37790 35145 ft 498 kts 19°
2026-05-06 19:41 -18.86630 -41.35378 35136 ft 498 kts 19°
2026-05-06 19:41 -18.80086 -41.32972 35139 ft 498 kts 19°
2026-05-06 19:42 -18.73540 -41.30561 35140 ft 498 kts 19°
2026-05-06 19:42 -18.66998 -41.28159 35146 ft 498 kts 19°
2026-05-06 19:43 -18.60495 -41.25781 35137 ft 498 kts 19°
2026-05-06 19:43 -18.53956 -41.23382 35139 ft 498 kts 19°
2026-05-06 19:44 -18.47422 -41.20986 35142 ft 497 kts 19°
2026-05-06 19:44 -18.40883 -41.18584 35139 ft 497 kts 19°
2026-05-06 19:45 -18.34353 -41.16197 35140 ft 497 kts 19°
2026-05-06 19:45 -18.27817 -41.13820 35141 ft 496 kts 19°
2026-05-06 19:46 -18.21295 -41.11437 35133 ft 497 kts 19°
2026-05-06 19:46 -18.14769 -41.09044 35147 ft 497 kts 19°
2026-05-06 19:47 -18.08241 -41.06668 35139 ft 496 kts 19°
2026-05-06 19:47 -18.01718 -41.04296 35149 ft 496 kts 19°
2026-05-06 19:48 -17.95197 -41.01926 35145 ft 496 kts 19°
2026-05-06 19:48 -17.88751 -40.99507 35141 ft 495 kts 21°
2026-05-06 19:49 -17.82406 -40.96694 35145 ft 495 kts 24°
2026-05-06 19:49 -17.76133 -40.93725 35145 ft 494 kts 24°
2026-05-06 19:50 -17.69839 -40.90827 35138 ft 494 kts 24°
2026-05-06 19:50 -17.63515 -40.88010 35141 ft 494 kts 23°
2026-05-06 19:51 -17.57193 -40.85208 35141 ft 493 kts 23°
2026-05-06 19:51 -17.50878 -40.82390 35136 ft 493 kts 23°
2026-05-06 19:52 -17.44567 -40.79558 35134 ft 493 kts 23°
2026-05-06 19:52 -17.38258 -40.76738 35143 ft 493 kts 23°
2026-05-06 19:53 -17.31945 -40.73923 35140 ft 493 kts 23°
2026-05-06 19:53 -17.25631 -40.71117 35133 ft 493 kts 23°
2026-05-06 19:54 -17.19316 -40.68304 35138 ft 493 kts 23°
2026-05-06 19:54 -17.12997 -40.65482 35143 ft 493 kts 23°
2026-05-06 19:55 -17.06727 -40.62683 35140 ft 493 kts 23°
2026-05-06 19:55 -17.00416 -40.59872 35142 ft 493 kts 23°
2026-05-06 19:56 -16.94108 -40.57065 35140 ft 493 kts 23°
2026-05-06 19:56 -16.87805 -40.54265 35138 ft 492 kts 23°
2026-05-06 19:57 -16.81497 -40.51468 35142 ft 492 kts 23°
2026-05-06 19:57 -16.75192 -40.48673 35137 ft 492 kts 23°
2026-05-06 19:58 -16.68892 -40.45879 35130 ft 492 kts 23°
2026-05-06 19:58 -16.62585 -40.43092 35137 ft 492 kts 23°
2026-05-06 19:59 -16.56311 -40.40320 35131 ft 492 kts 23°
2026-05-06 19:59 -16.50011 -40.37528 35132 ft 492 kts 23°
2026-05-06 20:00 -16.43708 -40.34739 35125 ft 492 kts 23°
2026-05-06 20:00 -16.37404 -40.31964 35122 ft 492 kts 23°
2026-05-06 20:01 -16.31102 -40.29181 35115 ft 491 kts 23°
2026-05-06 20:01 -16.24849 -40.26421 35117 ft 491 kts 23°
2026-05-06 20:02 -16.18548 -40.23649 35115 ft 491 kts 23°
2026-05-06 20:02 -16.12247 -40.20881 35106 ft 491 kts 23°
2026-05-06 20:03 -16.05945 -40.18108 35103 ft 491 kts 23°
2026-05-06 20:03 -15.99690 -40.15337 35113 ft 491 kts 23°
2026-05-06 20:04 -15.93393 -40.12560 35113 ft 491 kts 22°
2026-05-06 20:04 -15.87091 -40.09804 35111 ft 492 kts 22°
2026-05-06 20:05 -15.80779 -40.07039 35117 ft 492 kts 22°
2026-05-06 20:05 -15.74476 -40.04273 35125 ft 491 kts 22°
2026-05-06 20:06 -15.68181 -40.01516 35124 ft 491 kts 22°
2026-05-06 20:06 -15.61889 -39.98760 35124 ft 491 kts 22°
2026-05-06 20:07 -15.55595 -39.95993 35119 ft 491 kts 23°
2026-05-06 20:07 -15.49306 -39.93239 35118 ft 491 kts 22°
2026-05-06 20:08 -15.43011 -39.90501 35113 ft 491 kts 22°
2026-05-06 20:08 -15.36695 -39.87740 35098 ft 493 kts 22°
2026-05-06 20:09 -15.30415 -39.84993 35093 ft 494 kts 22°
2026-05-06 20:09 -15.24075 -39.82230 35092 ft 494 kts 22°
2026-05-06 20:10 -15.17726 -39.79468 35092 ft 495 kts 22°
2026-05-06 20:10 -15.11379 -39.76694 35098 ft 495 kts 22°
2026-05-06 20:11 -15.05036 -39.73929 35100 ft 495 kts 22°
2026-05-06 20:11 -14.99755 -39.71639 35098 ft 495 kts 22°
2026-05-06 20:12 -14.92438 -39.68160 35097 ft 495 kts 26°
2026-05-06 20:12 -14.86309 -39.64898 35103 ft 494 kts 27°
2026-05-06 20:13 -14.80197 -39.61658 35110 ft 494 kts 26°
2026-05-06 20:13 -14.74042 -39.58510 35105 ft 493 kts 26°
2026-05-06 20:14 -14.67886 -39.55396 35101 ft 493 kts 26°
2026-05-06 20:14 -14.61774 -39.52284 35097 ft 493 kts 26°
2026-05-06 20:15 -14.55634 -39.49148 35095 ft 492 kts 26°
2026-05-06 20:15 -14.49497 -39.46007 35092 ft 492 kts 26°
2026-05-06 20:16 -14.43356 -39.42872 35092 ft 492 kts 26°
2026-05-06 20:16 -14.37213 -39.39738 35091 ft 492 kts 26°
2026-05-06 20:17 -14.31071 -39.36614 35088 ft 492 kts 26°
2026-05-06 20:17 -14.24925 -39.33484 35093 ft 492 kts 26°
2026-05-06 20:18 -14.18789 -39.30356 34163 ft 495 kts 26°
2026-05-06 20:18 -14.15685 -39.28777 33080 ft 498 kts 26°
2026-05-06 20:18 -14.13625 -39.27729 32394 ft 498 kts 26°
2026-05-06 20:19 -14.09509 -39.25637 31053 ft 498 kts 26°
2026-05-06 20:19 -14.06407 -39.24060 30015 ft 498 kts 25°
2026-05-06 20:19 -14.03300 -39.22483 28758 ft 498 kts 25°
2026-05-06 20:19 -14.00185 -39.20904 27438 ft 500 kts 25°
2026-05-06 20:20 -13.98075 -39.19834 26527 ft 502 kts 25°
2026-05-06 20:20 -13.94938 -39.18241 25134 ft 505 kts 25°
2026-05-06 20:20 -13.90750 -39.16112 23409 ft 507 kts 25°
2026-05-06 20:20 -13.88623 -39.15033 22798 ft 501 kts 25°
2026-05-06 20:21 -13.85527 -39.13463 21946 ft 493 kts 26°
2026-05-06 20:21 -13.82474 -39.11914 21116 ft 486 kts 26°
2026-05-06 20:21 -13.79499 -39.10405 20314 ft 480 kts 26°
2026-05-06 20:21 -13.76526 -39.08896 19559 ft 473 kts 26°
2026-05-06 20:22 -13.73590 -39.07410 18846 ft 467 kts 26°
2026-05-06 20:22 -13.70729 -39.05902 18130 ft 460 kts 31°
2026-05-06 20:22 -13.68124 -39.04019 17375 ft 454 kts 39°
2026-05-06 20:22 -13.65671 -39.01999 16632 ft 448 kts 39°
2026-05-06 20:23 -13.63247 -39.00012 15917 ft 443 kts 39°
2026-05-06 20:23 -13.60846 -38.98046 15224 ft 438 kts 39°
2026-05-06 20:23 -13.58474 -38.96102 14561 ft 434 kts 39°
2026-05-06 20:23 -13.56130 -38.94178 13908 ft 429 kts 39°
2026-05-06 20:24 -13.53812 -38.92273 13336 ft 422 kts 40°
2026-05-06 20:24 -13.51584 -38.90443 13169 ft 395 kts 40°
2026-05-06 20:24 -13.49521 -38.88751 12990 ft 364 kts 40°
2026-05-06 20:24 -13.47615 -38.87191 12861 ft 337 kts 39°
2026-05-06 20:25 -13.45844 -38.85743 12699 ft 315 kts 40°
2026-05-06 20:25 -13.44162 -38.84366 12243 ft 305 kts 40°
2026-05-06 20:25 -13.42517 -38.83020 11675 ft 301 kts 40°
2026-05-06 20:25 -13.40893 -38.81686 11092 ft 297 kts 41°
2026-05-06 20:26 -13.39289 -38.80367 10503 ft 294 kts 41°
2026-05-06 20:26 -13.37685 -38.79048 10158 ft 293 kts 41°
2026-05-06 20:26 -13.36093 -38.77737 10086 ft 293 kts 41°
2026-05-06 20:26 -13.34498 -38.76425 9777 ft 295 kts 41°
2026-05-06 20:27 -13.32898 -38.75111 9370 ft 294 kts 41°
2026-05-06 20:27 -13.31305 -38.73804 8991 ft 292 kts 41°
2026-05-06 20:27 -13.29724 -38.72508 8614 ft 290 kts 41°
2026-05-06 20:27 -13.28175 -38.71238 8245 ft 288 kts 41°
2026-05-06 20:28 -13.26617 -38.69962 7878 ft 285 kts 41°
2026-05-06 20:28 -13.25074 -38.68698 7511 ft 283 kts 41°
2026-05-06 20:28 -13.23541 -38.67441 7150 ft 281 kts 41°
2026-05-06 20:28 -13.22018 -38.66191 6786 ft 279 kts 41°
2026-05-06 20:29 -13.20504 -38.64951 6421 ft 278 kts 41°
2026-05-06 20:29 -13.18998 -38.63718 6034 ft 276 kts 41°
2026-05-06 20:29 -13.17501 -38.62496 5675 ft 274 kts 42°
2026-05-06 20:29 -13.16804 -38.61927 5509 ft 274 kts 41°
2026-05-06 20:30 -13.15410 -38.60758 5168 ft 272 kts 42°
2026-05-06 20:30 -13.12523 -38.58408 4806 ft 253 kts 41°
2026-05-06 20:30 -13.11172 -38.57323 4676 ft 241 kts 41°
2026-05-06 20:31 -13.09881 -38.56281 4554 ft 233 kts 41°
2026-05-06 20:31 -13.08628 -38.55267 4436 ft 232 kts 41°
2026-05-06 20:31 -13.07367 -38.54243 4312 ft 231 kts 41°
2026-05-06 20:31 -13.06108 -38.53221 4193 ft 228 kts 42°
2026-05-06 20:32 -13.04848 -38.52287 4070 ft 220 kts 32°
2026-05-06 20:32 -13.03447 -38.51716 3895 ft 217 kts 17°
2026-05-06 20:32 -13.01961 -38.51467 3654 ft 215 kts 11°
2026-05-06 20:32 -13.00486 -38.51246 3424 ft 213 kts 12°
2026-05-06 20:33 -12.99025 -38.51025 3191 ft 211 kts 12°
2026-05-06 20:33 -12.97586 -38.50806 2964 ft 209 kts 12°
2026-05-06 20:33 -12.96187 -38.50537 2771 ft 200 kts 23°
2026-05-06 20:33 -12.95027 -38.49842 2563 ft 187 kts 49°
2026-05-06 20:34 -12.94295 -38.48850 2503 ft 164 kts 69°
2026-05-06 20:34 -12.93966 -38.47786 2505 ft 153 kts 82°
2026-05-06 20:34 -12.93754 -38.46731 2450 ft 148 kts 81°
2026-05-06 20:34 -12.93548 -38.45698 2305 ft 148 kts 82°
2026-05-06 20:35 -12.93341 -38.44665 2135 ft 148 kts 83°
2026-05-06 20:35 -12.93136 -38.43637 1954 ft 147 kts 82°
2026-05-06 20:35 -12.92931 -38.42612 1770 ft 146 kts 83°
2026-05-06 20:35 -12.92728 -38.41603 1574 ft 144 kts 84°
2026-05-06 20:36 -12.92525 -38.40586 1396 ft 145 kts 83°
2026-05-06 20:36 -12.92323 -38.39577 1200 ft 145 kts 83°
2026-05-06 20:36 -12.92120 -38.38560 1012 ft 146 kts 82°
2026-05-06 20:36 -12.91916 -38.37545 832 ft 145 kts 82°
2026-05-06 20:37 -12.91715 -38.36541 647 ft 143 kts 82°
2026-05-06 20:37 -12.91511 -38.35517 474 ft 150 kts 84°
2026-05-06 20:37 -12.91304 -38.34478 278 ft 152 kts 82°
2026-05-06 20:37 -12.91084 -38.33409 66 ft 152 kts 83°
2026-05-06 20:38 -12.90905 -38.32481 52 ft 99 kts 78°
2026-05-06 20:38 -12.90808 -38.32015 47 ft 55 kts 78°
2026-05-06 20:38 -12.90768 -38.31760 48 ft 16 kts 115°
2026-05-06 20:38 -12.90862 -38.31710 52 ft 12 kts 178°
2026-05-06 20:39 -12.90916 -38.31758 53 ft 13 kts 258°
2026-05-06 20:39 -12.90940 -38.31872 53 ft 20 kts 257°
2026-05-06 20:39 -12.90970 -38.32028 53 ft 24 kts 259°
2026-05-06 20:39 -12.91005 -38.32201 53 ft 26 kts 258°
2026-05-06 20:40 -12.91042 -38.32384 52 ft 27 kts 258°
2026-05-06 20:40 -12.91080 -38.32576 52 ft 28 kts 258°
2026-05-06 20:40 -12.91121 -38.32778 49 ft 30 kts 258°
2026-05-06 20:40 -12.91163 -38.32988 46 ft 31 kts 258°
2026-05-06 20:41 -12.91197 -38.33158 44 ft 13 kts 258°
2026-05-06 20:41 -12.91261 -38.33175 44 ft 12 kts 168°
2026-05-06 20:41 -12.91347 -38.33157 44 ft 14 kts 168°
2026-05-06 20:41 -12.91443 -38.33138 44 ft 13 kts 175°
2026-05-06 20:42 -12.91516 -38.33179 43 ft 11 kts 250°
2026-05-06 20:42 -12.91532 -38.33261 44 ft 13 kts 258°
2026-05-06 20:42 -12.91536 -38.33327 44 ft 3 kts 326°
2026-05-06 20:42 -12.91502 -38.33334 44 ft 6 kts 352°
2026-05-06 20:43 -12.91482 -38.33337 44 ft 0 kts 352°